Kezdőlap
METAR-TAF:

METAR-TAF

Repülőterek :

Vinton Veterans Memorial Airpark

Vinton, Iowa, Amerikai Egyesült Államok

földrajzi szélesség: 42-13-07N, földrajzi hosszúság: 092-01-33W, magasság: 258 m

Jelenlegi meteorológiai megfigyelések

A jelentés 12 perccel ezelõtt készült, 16:55 UTC
Déli szél 8 kt
Hőmérséklet 6°C
Páratartalom 61%
Légköri nyomás 1022 hPa
Látótávolság: 16.1 km
Derült ég

METAR: KVTI 081655Z AUTO 18008KT 10SM CLR 06/M01 A3018 RMK AO2 T00611013

Idő: 11:07 (17:07 UTC)


TAF: hiányzik

Meteorológiai megfigyelések és előrejelzések több, mint 4000 repülőtéren (METAR és TAF jelentéseket).

A térképen piros és sárga pontok jelzik az elérhető meteorológiai állomásokat.

Mozgassa az egeret a pont fölött, hogy megjelenjen az állomás neve.

Azután kattintson az időjárási megfigyelések és előrejelzések megtekintéséhez.

A térkép megváltoztatása: kattintson a fekete keresztel jelölt zöld gombra ráközelítéshez, a vonallal jelölt zöld gombra távolításhoz, vagy a zöld nyilakra a szomszédos térképek eléréséhez.


METAR-TAF: